Date String (YYYY-MM-DD hh:mm:ss) UTC,Instrument flags,absolute air pressure of the measurement (hPa),sample flow rate (lpm),inlet stack bypass flow (lpm),air temperature of the measurement (°C),ambient temperature measured by the external sensor (°C),aerosol sample conditioner tube jacket temperature (°C),OPC LED temperature (°C),internal box temperature (°C),relative humidity of the measurement (%),span deviation,mass concentration of particles derived from Lorenz-Mie calculation of OPC scattering (μg/m³),mass concentration of particles derived from Lorenz-Mie calculation of OPC scattering (μg/m³),mass concentration of particles derived from Lorenz-Mie calculation of OPC scattering (μg/m³)
DateTimeUTC,F1_M11,P_M11,Q1_M11,Q2_M11,T1_M11,T2_M11,T3_M11,T4_M11,T5_M11,U1_M11,ZSPAN_M11,X0_M11,X2_M11,X1_M11
2024-02-28 08:00:00,SystemResetWarning,0826.2,4.99,000.00,018.7,018.0,000.0,027.1,020.1,04.9,0000.0,0003.55,0001.35,0000.97
2024-02-28 08:01:00,SystemResetWarning,0826.3,4.99,000.00,018.6,017.8,000.0,027.1,020.0,04.9,0000.0,0003.51,0001.34,0000.97
2024-02-28 08:02:00,SystemResetWarning,0826.5,5.01,000.00,018.6,018.0,000.0,027.2,020.2,05.0,0000.0,0003.49,0001.32,0000.97
2024-02-28 08:03:00,SystemResetWarning,0826.5,5.02,000.00,018.7,018.7,000.0,027.3,020.7,05.1,0000.0,0003.39,0001.30,0000.96
2024-02-28 08:04:00,SystemResetWarning,0826.6,4.99,000.00,019.0,019.4,000.0,027.4,021.2,05.0,0000.0,0003.38,0001.33,0000.96
2024-02-28 08:05:00,SystemResetWarning,0826.6,5.00,000.00,019.1,019.6,000.0,027.4,021.3,05.0,0000.0,0003.36,0001.31,0000.96
2024-02-28 08:06:00,SystemResetWarning,0826.4,4.99,000.00,019.1,019.3,000.0,027.3,021.0,05.2,0000.0,0003.24,0001.29,0000.97
2024-02-28 08:07:00,SystemResetWarning,0826.5,5.00,000.00,019.0,019.0,000.0,027.3,020.8,05.4,0000.0,0003.13,0001.26,0000.96
2024-02-28 08:08:00,SystemResetWarning,0826.5,5.00,000.00,019.0,018.7,000.0,027.2,020.7,05.4,0000.0,0002.25,0001.20,0000.95
2024-02-28 08:09:00,SystemResetWarning,0826.4,5.01,000.00,018.9,018.5,000.0,027.2,020.5,05.5,0000.0,0001.96,0001.22,0000.96
2024-02-28 08:10:00,SystemResetWarning,0826.3,5.00,000.00,018.8,018.2,000.0,027.2,020.3,05.4,0000.0,0001.84,0001.19,0000.95
2024-02-28 08:11:00,SystemResetWarning,0826.4,4.99,000.00,018.8,018.0,000.0,027.2,020.2,05.3,0000.0,0001.85,0001.20,0000.95
2024-02-28 08:12:00,SystemResetWarning,0826.4,4.99,000.00,018.7,017.8,000.0,027.1,020.1,05.3,0000.0,0001.83,0001.19,0000.94
2024-02-28 08:13:00,SystemResetWarning,0826.4,5.01,000.00,018.6,017.7,000.0,027.1,020.0,05.5,0000.0,0001.84,0001.20,0000.93
2024-02-28 08:14:00,SystemResetWarning,0826.4,5.02,000.00,018.6,018.1,000.0,027.3,020.4,05.5,0000.0,0001.82,0001.18,0000.93
2024-02-28 08:15:00,SystemResetWarning,0826.4,5.01,000.00,018.8,018.9,000.0,027.3,020.9,05.8,0000.0,0001.81,0001.15,0000.91
2024-02-28 08:16:00,SystemResetWarning,0826.5,4.99,000.00,019.0,019.3,000.0,027.4,021.2,06.1,0000.0,0001.90,0001.15,0000.90
2024-02-28 08:17:00,SystemResetWarning,0826.4,4.99,000.00,019.0,019.1,000.0,027.3,021.0,06.0,0000.0,0001.90,0001.14,0000.90
2024-02-28 08:18:00,SystemResetWarning,0826.4,5.00,000.00,019.0,018.8,000.0,027.3,020.8,06.0,0000.0,0001.87,0001.12,0000.89
2024-02-28 08:19:00,SystemResetWarning,0826.3,4.99,000.00,018.9,018.6,000.0,027.2,020.6,06.7,0000.0,0002.00,0001.14,0000.89
2024-02-28 08:20:00,SystemResetWarning,0826.2,5.00,000.00,018.8,018.3,000.0,027.2,020.4,06.2,0000.0,0002.20,0001.13,0000.88
2024-02-28 08:21:00,SystemResetWarning,0826.3,5.00,000.00,018.8,018.1,000.0,027.2,020.3,05.7,0000.0,0002.25,0001.15,0000.88
2024-02-28 08:22:00,SystemResetWarning,0826.1,5.01,000.00,018.7,017.9,000.0,027.1,020.2,05.6,0000.0,0002.23,0001.12,0000.87
2024-02-28 08:23:00,SystemResetWarning,0826.1,5.00,000.00,018.6,017.7,000.0,027.1,020.0,05.7,0000.0,0002.23,0001.11,0000.85
2024-02-28 08:24:00,SystemResetWarning,0826.4,5.01,000.00,018.6,018.0,000.0,027.3,020.3,05.3,0000.0,0002.30,0001.12,0000.85
2024-02-28 08:25:00,SystemResetWarning,0826.4,4.98,000.00,018.8,018.8,000.0,027.3,020.8,05.1,0000.0,0002.28,0001.11,0000.84
2024-02-28 08:26:00,SystemResetWarning,0826.4,4.99,000.00,019.0,019.3,000.0,027.4,021.2,05.1,0000.0,0002.36,0001.14,0000.84
2024-02-28 08:27:00,SystemResetWarning,0826.4,4.99,000.00,019.0,019.1,000.0,027.3,021.0,05.2,0000.0,0002.33,0001.15,0000.84
2024-02-28 08:28:00,SystemResetWarning,0826.4,5.01,000.00,018.9,018.8,000.0,027.3,020.7,05.2,0000.0,0002.31,0001.16,0000.85
2024-02-28 08:29:00,SystemResetWarning,0826.4,5.00,000.00,018.9,018.6,000.0,027.2,020.5,05.0,0000.0,0002.33,0001.17,0000.86
2024-02-28 08:30:00,SystemResetWarning,0826.4,5.00,000.00,018.8,018.3,000.0,027.2,020.3,05.1,0000.0,0002.39,0001.18,0000.86
2024-02-28 08:31:00,SystemResetWarning,0826.4,4.99,000.00,018.7,018.0,000.0,027.1,020.2,05.3,0000.0,0002.06,0001.16,0000.86
2024-02-28 08:32:00,SystemResetWarning,0826.3,5.00,000.00,018.6,017.8,000.0,027.1,020.1,05.6,0000.0,0002.22,0001.21,0000.88
2024-02-28 08:33:00,SystemResetWarning,0826.2,5.01,000.00,018.5,017.7,000.0,027.1,020.1,05.3,0000.0,0002.33,0001.23,0000.90
2024-02-28 08:34:00,SystemResetWarning,0826.4,5.00,000.00,018.6,018.3,000.0,027.2,020.5,05.2,0000.0,0002.51,0001.27,0000.90
2024-02-28 08:35:00,SystemResetWarning,0826.6,4.99,000.00,018.8,019.0,000.0,027.3,021.0,05.0,0000.0,0002.56,0001.25,0000.89
2024-02-28 08:36:00,SystemResetWarning,0826.5,5.00,000.00,019.0,019.2,000.0,027.3,021.1,05.1,0000.0,0002.56,0001.23,0000.88
2024-02-28 08:37:00,SystemResetWarning,0826.5,4.99,000.00,018.9,019.0,000.0,027.2,020.8,04.8,0000.0,0002.59,0001.21,0000.86
2024-02-28 08:38:00,SystemResetWarning,0826.4,5.01,000.00,018.9,018.7,000.0,027.2,020.6,04.8,0000.0,0002.53,0001.17,0000.83
2024-02-28 08:39:00,SystemResetWarning,0826.5,5.00,000.00,018.8,018.4,000.0,027.2,020.4,04.8,0000.0,0002.45,0001.13,0000.80
2024-02-28 08:40:00,SystemResetWarning,0826.6,4.99,000.00,018.7,018.2,000.0,027.1,020.2,05.0,0000.0,0002.38,0001.08,0000.76
2024-02-28 08:41:00,SystemResetWarning,0826.5,4.99,000.00,018.6,017.9,000.0,027.1,020.1,04.9,0000.0,0002.29,0001.04,0000.73
2024-02-28 08:42:00,SystemResetWarning,0826.4,5.00,000.00,018.6,017.9,000.0,027.1,020.1,05.0,0000.0,0002.15,0000.99,0000.68
2024-02-28 08:43:00,SystemResetWarning,0826.4,5.02,000.00,018.7,018.4,000.0,027.2,020.5,05.1,0000.0,0001.92,0000.90,0000.62
2024-02-28 08:44:00,SystemResetWarning,0826.6,4.99,000.00,018.9,019.1,000.0,027.3,021.0,05.4,0000.0,0001.80,0000.84,0000.57
2024-02-28 08:45:00,SystemResetWarning,0826.4,5.00,000.00,019.0,019.3,000.0,027.3,021.2,05.5,0000.0,0001.58,0000.78,0000.55
2024-02-28 08:46:00,SystemResetWarning,0826.4,4.99,000.00,019.0,019.1,000.0,027.3,020.9,05.2,0000.0,0001.59,0000.79,0000.52
2024-02-28 08:47:00,SystemResetWarning,0826.4,5.01,000.00,019.0,018.8,000.0,027.2,020.7,05.3,0000.0,0001.64,0000.79,0000.51
2024-02-28 08:48:00,SystemResetWarning,0826.4,5.01,000.00,018.9,018.5,000.0,027.2,020.5,05.4,0000.0,0001.50,0000.75,0000.51
2024-02-28 08:49:00,SystemResetWarning,0826.4,5.00,000.00,018.8,018.3,000.0,027.2,020.3,05.2,0000.0,0001.56,0000.75,0000.50
2024-02-28 08:50:00,SystemResetWarning,0826.3,5.00,000.00,018.7,018.1,000.0,027.1,020.2,05.2,0000.0,0001.73,0000.79,0000.49
2024-02-28 08:51:00,SystemResetWarning,0826.2,5.00,000.00,018.7,017.9,000.0,027.1,020.2,05.1,0000.0,0001.81,0000.82,0000.49
2024-02-28 08:52:00,SystemResetWarning,0826.2,5.00,000.00,018.6,017.7,000.0,027.1,020.0,05.2,0000.0,0001.78,0000.80,0000.47
2024-02-28 08:53:00,SystemResetWarning,0826.2,5.01,000.00,018.5,017.9,000.0,027.2,020.2,05.2,0000.0,0001.78,0000.81,0000.48
2024-02-28 08:54:00,SystemResetWarning,0826.4,5.00,000.00,018.7,018.6,000.0,027.3,020.7,05.0,0000.0,0001.82,0000.82,0000.48
2024-02-28 08:55:00,SystemResetWarning,0826.3,4.99,000.00,018.9,019.3,000.0,027.3,021.2,04.9,0000.0,0001.79,0000.82,0000.48
2024-02-28 08:56:00,SystemResetWarning,0826.2,4.99,000.00,019.0,019.3,000.0,027.3,021.1,05.1,0000.0,0001.78,0000.81,0000.48
2024-02-28 08:57:00,SystemResetWarning,0826.4,4.99,000.00,019.0,019.0,000.0,027.3,020.9,05.2,0000.0,0001.95,0000.83,0000.49
2024-02-28 08:58:00,SystemResetWarning,0826.4,5.00,000.00,018.9,018.8,000.0,027.2,020.7,05.3,0000.0,0002.45,0000.87,0000.51
2024-02-28 08:59:00,SystemResetWarning,0826.4,5.00,000.00,018.9,018.5,000.0,027.2,020.5,05.1,0000.0,0002.40,0000.85,0000.50
